www.pogodaiklimat.ru

Погода и климат >> Архив погоды >> Франция >> Paris Orly Airport


АРХИВ ПОГОДЫ в Paris Orly Airport

Время (UTC), дата Ветер
(напр.,м/с)
 
Видим.   Явления Облачность Т
(С)
Тd
(С)
f
(%)
Тe
(С)
Тes
(С)
Комфортность P
(гПа)
Po
(гПа)
Тmin
(С)
Tmax
(С)
R
(мм)
S
(см)
19 14.02 Ю 1 18 км 5/5 1500 м
[Sc Ac trans Ci fib]
+9.7 +4.7 71 +9 +9 тепло 1028.3 1017.2
20 14.02 Ю 1 10 км 8/8 1500 м
[Sc Ac trans]
+9.2 +4.2 71 +9 +9 тепло 1028.5 1017.4
21 14.02 ЮВ 1 10 км 9/9 1500 м
[Sc]
+9.0 +4.2 72 +10 +10 тепло 1028.7 1017.6
22 14.02 В 1 18 км 6/6 2000 м
[Sc]
+8.9 +4.1 72 +9 +9 тепло 1029.0 1017.9
23 14.02 ЮВ 1 16 км 3/3 2000 м
[Sc Ac trans Ci fib]
+8.0 +3.8 75 +8 +8 тепло 1029.1 1018.0
00 15.02 ЮВ 1 10 км 6/3 2000 м
[Sc Ac trans Ci fib]
+7.9 +3.5 74 +8 +8 тепло 1029.7 1018.5
01 15.02 ЮВ 2
{3}
16 км 4/1 2000 м
[Sc Ac trans Ci fib]
+7.6 +3.6 76 +6 +6 тепло 1029.7 1018.5
02 15.02 ЮВ 1
{3}
16 км 4/1 2000 м
[Sc Ac trans Ci fib]
+6.5 +3.3 80 +5 +5 тепло 1029.7 1018.5
03 15.02 В 1 10 км 5/5 1500 м
[Sc]
+6.9 +3.3 78 +7 +7 тепло 1029.8 1018.6
04 15.02 штиль 0 8000 м 3/3 1500 м
[Sc]
+5.7 +2.7 81 +5 +5 тепло 1030.2 1019.0
05 15.02 штиль 0 8000 м 6/6 2000 м
[Sc]
+5.9 +3.4 84 +5 +5 тепло 1030.5 1019.3
06 15.02 штиль 0 18 км 9/9 1080 м
[Sc]
+6.3 +3.5 82 +5 +5 тепло 1030.8 1019.6 +5.1 +11.1
07 15.02 Ю 1 15 км 5/5 1050 м
[Sc]
+6.4 +3.4 81 +7 +7 тепло 1031.1 1019.9
08 15.02 ЮВ 1 18 км 9/9 1080 м
[Sc]
+7.0 +4.0 81 +7 +7 тепло 1031.9 1020.7
09 15.02 Ю 2 20 км 1/1 1200 м
[Sc]
+9.9 +5.1 72 +9 +11 тепло 1032.0 1020.9
10 15.02 Ю 2 20 км 1/1 2000 м
[Sc Ci fib]
+12.4 +6.0 65 +12 +15 тепло 1031.9 1020.9
11 15.02 Ю 2 24 км н/о +14.2 +6.8 61 +14 +14 тепло 1031.8 1020.9
12 15.02 Ю 3 25 км 1/1 900 м
[Cu hum Ci fib]
+15.2 +7.5 60 +15 +19 тепло 1031.6 1020.7
13 15.02 ЮЗ 3 23 км 1/1 1000 м
[Cu hum]
+16.0 +7.5 57 +16 +20 тепло 1031.3 1020.5
14 15.02 Ю 3 23 км 1/1 1000 м
[Cu hum]
+16.3 +7.5 56 +16 +18 тепло 1031.0 1020.2
15 15.02 Ю 3 25 км 1/1 1200 м
[Cu hum Ac trans]
+16.5 +6.9 53 +16 +18 тепло 1031.0 1020.2
16 15.02 ЮЗ 2 25 км 3/1 1200 м
[Cu hum Ac trans]
+15.6 +6.8 56 +16 +16 тепло 1031.2 1020.3
17 15.02 Ю 2
{6}
25 км 3/1 1200 м
[Cu hum Ac trans]
+13.5 +6.6 63 +13 +13 тепло 1031.4 1020.5
18 15.02 Ю 1 19 км 5/0
[Ac trans]
+11.9 +6.4 69 +13 +13 тепло 1031.7 1020.7 +6.3 +16.8
19 15.02 Ю 1 13 км 5/0
[Ac trans]
+10.7 +6.6 76 +11 +11 тепло 1032.2 1021.1
20 15.02 штиль 0 9000 м 10/10 1500 м
[]
+10.9 +6.8 76 +10 +10 тепло 1032.3 1021.2
21 15.02 Ю 1
{4}
15 км 9/6 1410 м
[Sc Ac trans]
+10.8 +6.9 77 +11 +11 тепло 1032.6 1021.5
22 15.02 ЮЗ 2
{2}
15 км 9/9 1260 м
[Sc]
+10.4 +6.7 78 +9 +9 тепло 1032.6 1021.5
23 15.02 штиль 0 8000 м 9/9 1230 м
[Sc]
+9.5 +6.6 82 +9 +9 тепло 1032.6 1021.5
00 16.02 штиль 0 8000 м 8/8 1380 м
[Sc]
+8.8 +6.8 87 +8 +8 тепло 1032.6 1021.5
01 16.02 З 1 9000 м 9/4 1050 м
[Sc]
+7.5 +5.8 89 +7 +7 тепло 1032.8 1021.6
02 16.02 З 1 4900 м 8/5 1020 м
[Sc Ac trans Ci]
+7.7 +6.5 92 +8 +8 тепло 1032.7 1021.5
03 16.02 штиль 0 12 км местами туман поземный 9/3 900 м
[Sc Ac trans Ci]
+6.3 +5.1 92 +5 +5 тепло 1032.5 1021.3
04 16.02 СЗ 1
{2}
12 км 9/6 960 м
[Sc Ac trans]
+7.0 +6.3 95 +6 +6 тепло 1032.4 1021.2
05 16.02 С 2
{6}
6000 м ливневой дождь 9/9 480 м
[Cu Sc]
+7.6 +6.8 95 +6 +6 тепло 1032.8 1021.6 0.4
06 16.02 Ю 1 5000 м {ливн. осадки, дождь} 10/10 1000 м
[]
+7.9 +7.0 94 +8 +8 тепло 1032.0 1020.8 +6.2 +11.8 0.6
07 16.02 штиль 0 8000 м слабый дождь {ливн. осадки} 9/9 600 м
[Cu Sc]
+7.5 +6.4 93 +7 +7 тепло 1032.1 1020.9 0.2
08 16.02 штиль 0 7000 м слабый дождь 9/9 930 м
[Sc]
+8.1 +7.3 95 +7 +7 тепло 1032.3 1021.1 0.4
09 16.02 штиль 0
{1}
7000 м в посл. час дождь {ливн. осадки} 9/9 450 м
[Cu Sc]
+8.8 +8.0 95 +8 +8 тепло 1032.2 1021.1 0.6
10 16.02 ЮВ 1 4500 м слабый дождь 9/9 420 м
[Cu Sc]
+9.0 +7.9 93 +9 +10 тепло 1032.3 1021.2 0.8
11 16.02 С 1 5000 м {дождь} 9/9 180 м
[Cu Sc]
+10.1 +8.7 91 +10 +11 тепло 1032.0 1020.9
12 16.02 ЮВ 1
{2}
9000 м {ливн. осадки, дождь} 6/6 300 м
[Cu Sc]
+10.9 +8.8 87 +11 +13 тепло 1031.4 1020.4 0.8
13 16.02 Ю 1 8000 м 9/9 360 м
[Cu Sc]
+11.9 +8.6 80 +12 +12 тепло 1030.9 1019.9
14 16.02 Ю 2 5000 м 9/5 300 м
[]
+11.1 +8.8 86 +10 +11 тепло 1030.2 1019.2
15 16.02 Ю 1 7000 м 9/9 300 м
[Cu Sc]
+11.5 +9.1 85 +11 +11 тепло 1029.9 1018.9
16 16.02 Ю 2
{3}
6000 м в посл. час дождь 9/9 300 м
[Cu Sc]
+10.8 +8.9 88 +9 +9 тепло 1029.7 1018.7 0.2
17 16.02 Ю 3
{5}
4500 м дымка 9/9 240 м
[Cu Sc]
+10.5 +8.9 90 +9 +9 тепло 1030.0 1019.0
18 16.02 ЮЗ 1 2700 м слабый дождь 9/9 200 м
[Cu Sc]
+10.3 +8.9 91 +11 +11 тепло 1030.0 1019.0 +7.5 +12.1 0.2
19 16.02 СЗ 1 7000 м в посл. час ливневой дождь 9/8 500 м
[Sc Ac trans]
+9.4 +7.5 88 +10 +10 тепло 1030.3 1019.2 1
20 16.02 З 1 4600 м 8/6 1050 м
[Sc Ci fib]
+7.7 +6.3 91 +7 +7 тепло 1030.5 1019.3
21 16.02 З 2 5000 м {ливн. осадки, дождь} 5/4 1080 м
[Sc Ci fib]
+7.2 +6.0 92 +5 +5 тепло 1030.5 1019.3 1
22 16.02 СЗ 1 600 м дымка 4/3 1080 м
[Sc Ci fib]
+7.9 +6.8 93 +7 +7 тепло 1030.7 1019.5
23 16.02 СЗ 1 3200 м дымка 3/3 540 м
[Cu hum]
+7.4 +6.3 93 +6 +6 тепло 1030.6 1019.4
00 17.02 штиль 0 100 м местами туман поземный {ливн. осадки, дождь} ясно +5.1 +3.8 91 +4 +4 тепло 1030.5 1019.2
01 17.02 СЗ 1 1000 м туман поземный 8/0
[]
+3.6 +2.6 93 +2 +2 тепло 1030.2 1018.9
02 17.02 З 2
{2}
2200 м туман на расстоянии 9/0
[Ac As Ci fib]
+3.6 +2.9 95 0 0 тепло 1030.1 1018.8
03 17.02 З 1 1800 м туман на расстоянии 9/3 210 м
[St Ac As Ci fib]
+3.5 +3.1 97 +2 +2 по сезону 1029.8 1018.5
04 17.02 З 1 1800 м туман на расстоянии 9/0
[Ac As]
+3.4 +2.7 95 +2 +2 тепло 1029.9 1018.6
05 17.02 ЮЗ 2
{3}
1800 м туман на расстоянии 9/1 150 м
[St Ac As Ci fib]
+3.7 +3.1 96 +1 +1 тепло 1029.7 1018.4
06 17.02 ЮЗ 1 2200 м дымка 9/0
[Ac As]
+4.0 +3.4 96 +4 +4 тепло 1029.7 1018.4 +2.9 +10.3 1
07 17.02 З 1 900 м туман местами 9/4 150 м
[St Ac trans]
+3.4 +2.8 96 +2 +2 тепло 1029.9 1018.6
08 17.02 З 1 800 м туман 9/9 60 м
[St]
+4.3 +3.9 97 +4 +4 тепло 1030.4 1019.1
09 17.02 З 2 1800 м в посл. час туман 9/9 60 м
[Sc]
+5.4 +5.1 98 +3 +3 по сезону 1030.3 1019.0
10 17.02 З 1
{3}
4500 м дымка 9/9 120 м
[Sc]
+7.0 +6.4 96 +6 +6 тепло 1030.5 1019.3
11 17.02 З 1 8000 м 9/6 240 м
[Cu Sc Ac trans]
+9.0 +6.3 83 +8 +10 тепло 1030.2 1019.1
12 17.02 З 1 8000 м {туман} 8/8 300 м
[Cu Sc]
+10.0 +6.5 79 +10 +11 тепло 1029.8 1018.7
13 17.02 СЗ 3
{8}
9000 м 6/3 400 м
[Cu hum Ac trans Ci sp]
+10.8 +6.0 72 +9 +12 тепло 1029.3 1018.3
14 17.02 СЗ 1 15 км 6/3 600 м
[Cu hum Ac trans Ci sp]
+11.9 +4.4 60 +12 +14 тепло 1028.9 1017.9
15 17.02 З 1 18 км 6/4 800 м
[Cu Sc Ci sp]
+12.2 +4.4 59 +12 +14 тепло 1028.7 1017.7
16 17.02 С 1 18 км 6/3 800 м
[Cu Sc Ci sp]
+11.3 +4.0 61 +11 +12 тепло 1028.4 1017.4
17 17.02 С 2
{6}
15 км 6/1 800 м
[Cu hum Ci sp]
+8.8 +4.0 72 +7 +7 тепло 1028.5 1017.4
18 17.02 СВ 1 13 км 6/0
[]
+7.8 +4.4 79 +8 +8 тепло 1028.8 1017.7 +3.1 +12.3
19 17.02 В 1 5000 м 5/0
[]
+6.9 +5.0 88 +6 +6 тепло 1029.2 1018.0
20 17.02 штиль 0 5000 м местами туман поземный 4/0
[]
+5.5 +4.1 91 +4 +4 тепло 1029.2 1018.0
21 17.02 штиль 0 900 м местами туман поземный 6/4 540 м
[Sc Ci fib]
+4.9 +3.9 93 +4 +4 по сезону 1029.3 1018.0
22 17.02 штиль 0 100 м туман н/о +3.8 +2.3 90 +3 +3 тепло 1029.1 1017.8
23 17.02 штиль 0 <100 м туман на расстоянии 4/4 90 м
[St Ci fib]
+2.3 +1.7 96 +1 +1 тепло 1028.9 1017.5
00 18.02 С 1 <100 м туман н/о +1.7 +1.4 98 +1 +1 по сезону 1028.6 1017.2
01 18.02 СВ 1 100 м туман на расстоянии 4/4 90 м
[St]
+3.3 +3.3 100 +3 +3 тепло 1028.5 1017.2
02 18.02 штиль 0 <100 м туман 5/5 90 м
[St]
+1.2 -0.1 91 0 0 тепло 1028.3 1016.9
03 18.02 Ю 1 <100 м туман ?/? +1.0 +0.4 96 0 0 по сезону 1027.9 1016.5
04 18.02 штиль 0 <100 м туман ?/? +1.7 +1.3 97 0 0 тепло 1027.5 1016.1
05 18.02 штиль 0
{1}
<100 м туман ?/? +1.6 +1.2 97 0 0 тепло 1027.6 1016.2
06 18.02 СВ 1 <100 м туман ?/? +1.5 +1.1 97 +1 +1 по сезону 1027.5 1016.1 +0.1 +7.9
07 18.02 В 1 <100 м туман ?/? +1.4 +1.0 97 +1 +1 тепло 1027.6 1016.2
08 18.02 В 2
{3}
<100 м туман ?/? +1.6 +1.3 98 -1 -1 по сезону 1027.7 1016.3
09 18.02 В 1 100 м туман ?/? +2.1 +1.8 98 +2 +2 по сезону 1027.7 1016.3
10 18.02 В 1-1
{1}
200 м туман ?/? +3.3 +3.2 99 +3 +3 тепло 1027.9 1016.6
11 18.02 ЮВ 1 4000 м дымка 8/8 90 м
[St]
+5.5 +5.4 99 +4 +5 тепло 1027.8 1016.6
12 18.02 ЮВ 2 12 км {туман} 3/3 270 м
[St]
+7.9 +4.7 80 +6 +11 по сезону 1027.1 1016.0
13 18.02 ЮВ 2
{5}
12 км 3/3 480 м
[Cu hum]
+9.2 +5.0 75 +8 +11 тепло 1026.2 1015.1
14 18.02 В 2 12 км 3/3 630 м
[Cu hum]
+10.9 +5.0 67 +10 +13 тепло 1025.6 1014.6
15 18.02 В 2 14 км 3/3 750 м
[Cu hum]
+10.9 +3.7 61 +10 +12 тепло 1025.3 1014.3
16 18.02 ЮВ 3
{6}
20 км 3/3 1110 м
[Sc diur, vesp]
+10.9 +2.2 55 +10 +10 тепло 1025.0 1014.0
17 18.02 ЮВ 3
{5}
20 км 3/3 1110 м
[Sc]
+9.3 +1.4 58 +7 +7 тепло 1025.3 1014.2
18 18.02 ЮВ 2 19 км 1/1 600 м
[Sc]
+7.9 +2.6 69 +7 +7 тепло 1025.5 1014.4 +1.3 +11.4
19 18.02 В 1 20 км ясно +6.3 +2.9 79 +6 +6 тепло 1025.8 1014.6
20 18.02 В 1
{2}
15 км ясно +4.3 +2.0 85 +3 +3 тепло 1026.2 1014.9
21 18.02 С 1 1300 м местами туман поземный ясно +4.3 +3.1 92 +4 +4 по сезону 1026.1 1014.8
22 18.02 штиль 0 300 м туман н/о +1.8 +0.2 89 +1 +1 тепло 1026.3 1014.9
23 18.02 Ю 1 100 м туман н/о +1.7 +0.7 93 +1 +1 тепло 1026.2 1014.8
00 19.02 З 1 2700 м туман на расстоянии 1/1 90 м
[St]
+1.2 +0.2 93 +1 +1 по сезону 1026.2 1014.8
01 19.02 ЮЗ 1 1800 м туман на расстоянии 1/1 120 м
[St]
+0.4 -0.3 95 -0 -0 тепло 1026.3 1014.9
02 19.02 ЮЗ 1 1400 м туман на расстоянии 3/3 150 м
[St]
+0.4 -0.3 95 -0 -0 тепло 1026.0 1014.6
03 19.02 ЮЗ 1
{2}
2700 м туман на расстоянии 3/3 150 м
[St]
-0.2 -1.0 94 -2 -2 по сезону 1025.5 1014.1
04 19.02 ЮЗ 1
{2}
2700 м туман на расстоянии 3/3 180 м
[St]
-0.9 -1.9 93 -2 -2 тепло 1025.6 1014.1
05 19.02 ЮЗ 1 2700 м дымка 3/3 180 м
[St]
-1.6 -2.9 91 -2 -2 по сезону 1025.5 1014.0
06 19.02 З 1 1400 м местами туман поземный 1/1 100 м
[St]
-1.6 -2.6 93 -2 -2 по сезону 1025.8 1014.3 -1.7 +7.8
07 19.02 штиль 0
{2}
3000 м дымка 4/0
[Ci fib]
-0.9 -1.5 96 -2 -2 тепло 1026.1 1014.6
08 19.02 Ю 1
{2}
100 м туман местами 5/3 30 м
[St Ci fib]
-0.2 -0.8 96 -2 -2 по сезону 1026.9 1015.4
09 19.02 ЮЗ 1 100 м туман 5/0
[]
+0.6 +0.3 98 -0 +2 по сезону 1027.0 1015.6
10 19.02 Ю 1 200 м туман 5/4 30 м
[St Ci fib]
+2.0 +2.0 100 -0 +3 по сезону 1026.6 1015.2
11 19.02 Ю 2
{3}
4500 м дымка {туман} 9/1 30 м
[St Ci fib]
+4.3 +3.9 97 +2 +6 по сезону 1027.1 1015.8
12 19.02 Ю 1 13 км {туман} 9/0
[]
+7.4 +4.0 79 +7 +10 тепло 1026.2 1015.1
13 19.02 Ю 2 15 км 8/0
[]
+9.5 +4.7 72 +8 +12 тепло 1025.3 1014.3
14 19.02 З 2 11 км 5/1 900 м
[Cu Sc Ci fib]
+11.4 +4.8 64 +10 +13 тепло 1025.0 1014.0
15 19.02 З 2 18 км 9/9 1000 м
[Sc]
+11.3 +4.3 62 +11 +11 тепло 1025.0 1014.0
16 19.02 СЗ 5
{7}
18 км 10/10 840 м
[Sc]
+10.5 +5.0 69 +8 +8 тепло 1025.1 1014.1
17 19.02 З 2 18 км 10/10 840 м
[Sc]
+10.0 +4.6 69 +9 +9 тепло 1025.1 1014.1
18 19.02 З 1 18 км 10/10 600 м
[Sc]
+9.6 +4.8 72 +9 +9 тепло 1025.3 1014.3 -1.8 +12.1
19 19.02 З 2
{3}
18 км 10/10 750 м
[Sc]
+9.1 +4.9 75 +7 +7 тепло 1025.5 1014.4
20 19.02 З 2
{3}
18 км 10/9 1110 м
[Sc]
+9.0 +5.0 76 +8 +8 тепло 1025.7 1014.6
21 19.02 З 1 18 км 10/10 1110 м
[Sc]
+8.6 +4.8 77 +8 +8 тепло 1025.6 1014.5
22 19.02 З 1 12 км 10/10 1080 м
[Sc]
+8.5 +4.3 75 +8 +8 тепло 1025.8 1014.7
23 19.02 ЮЗ 2
{3}
18 км 9/9 1050 м
[Sc]
+6.6 +3.4 80 +5 +5 тепло 1025.9 1014.7
00 20.02 З 1 18 км 9/9 960 м
[Sc]
+7.2 +4.0 80 +7 +7 тепло 1025.6 1014.5
01 20.02 ЮЗ 1 18 км 9/9 800 м
[Sc]
+8.0 +4.4 78 +8 +8 тепло 1025.3 1014.2
02 20.02 ЮЗ 1 15 км 9/9 720 м
[Sc]
+7.9 +4.3 78 +8 +8 тепло 1025.0 1013.9
03 20.02 ЮЗ 1 15 км 9/9 630 м
[Sc]
+8.0 +4.6 79 +7 +7 тепло 1024.6 1013.5
04 20.02 ЮЗ 2 13 км 10/9 450 м
[Sc]
+7.9 +4.5 79 +6 +6 тепло 1024.6 1013.5
05 20.02 ЮЗ 2 12 км 10/9 360 м
[Sc]
+7.8 +4.6 80 +6 +6 тепло 1024.2 1013.1
06 20.02 ЮЗ 4 10 км 10/9 450 м
[Sc]
+7.6 +5.4 86 +4 +4 тепло 1023.7 1012.6 +6.5 +9.6
07 20.02 Ю 1 9000 м в посл. час морось 10/10 570 м
[Sc]
+7.7 +5.2 84 +7 +7 тепло 1023.9 1012.8
08 20.02 ЮЗ 2 9000 м {морось} 10/10 570 м
[Sc]
+7.9 +5.4 84 +6 +6 тепло 1024.4 1013.3
09 20.02 ЮЗ 2 8000 м слабый дождь {морось} 10/10 330 м
[Cu Sc]
+8.5 +5.9 84 +7 +7 тепло 1024.1 1013.0
10 20.02 ЮЗ 2 8000 м слабый дождь 10/10 300 м
[Frnb]
+8.9 +6.7 86 +7 +7 тепло 1024.1 1013.1
11 20.02 З 5
{8}
16 км {дождь} 10/10 360 м
[Sc]
+10.1 +6.8 80 +7 +7 тепло 1024.0 1013.0 0.0
12 20.02 З 3 16 км {дождь, морось} 10/10 330 м
[Sc]
+10.2 +7.3 82 +8 +8 тепло 1023.5 1012.5
13 20.02 ЮЗ 3 15 км 10/10 270 м
[Frnb]
+10.1 +7.5 84 +8 +8 тепло 1023.1 1012.1
14 20.02 ЮЗ 4
{7}
15 км 10/10 240 м
[Frnb]
+10.4 +8.0 85 +8 +8 тепло 1022.6 1011.6
15 20.02 ЮЗ 2 15 км 10/10 300 м
[Frnb]
+10.9 +8.3 84 +10 +10 тепло 1022.1 1011.2
16 20.02 ЮЗ 3 19 км 10/10 300 м
[Frnb]
+11.3 +8.7 84 +10 +10 тепло 1022.1 1011.2
17 20.02 ЮЗ 3
{7}
8000 м 10/10 270 м
[Frnb]
+11.3 +9.0 86 +9 +9 тепло 1022.2 1011.3
18 20.02 ЮЗ 4
{6}
10 км в посл. час морось 10/10 240 м
[Frnb]
+11.0 +9.3 89 +9 +9 тепло 1022.4 1011.5 +7.6 +11.5 0.0
19 20.02 ЮЗ 2 2700 м слабая морось 10/10 210 м
[Frnb]
+11.0 +9.7 92 +10 +10 тепло 1022.5 1011.6
20 20.02 ЮЗ 2 2700 м слабая морось 10/10 210 м
[Frnb]
+11.0 +10.1 94 +10 +10 тепло 1022.5 1011.6
21 20.02 ЮЗ 3
{5}
10 км в посл. час морось 10/10 240 м
[Frnb]
+11.3 +10.0 92 +9 +9 тепло 1022.3 1011.4 0.0
22 20.02 З 4
{7}
17 км 10/10 240 м
[Frnb]
+11.4 +10.0 91 +9 +9 тепло 1022.1 1011.2
23 20.02 З 2 17 км 10/10 300 м
[Frnb]
+11.4 +9.6 89 +10 +10 тепло 1022.1 1011.2
00 21.02 З 3 17 км {морось} 10/10 300 м
[St]
+11.4 +9.3 87 +10 +10 тепло 1022.1 1011.2
01 21.02 З 2 17 км 10/10 240 м
[St]
+11.2 +9.3 88 +10 +10 тепло 1022.1 1011.2
02 21.02 З 2 23 км 10/10 270 м
[St]
+11.0 +9.1 88 +10 +10 тепло 1021.6 1010.7
03 21.02 З 2 25 км 10/10 240 м
[St]
+10.8 +9.1 89 +9 +9 тепло 1021.5 1010.6
04 21.02 З 2 16 км 10/10 240 м
[St]
+10.4 +8.7 89 +9 +9 тепло 1021.6 1010.6
05 21.02 З 2 35 км 10/10 300 м
[St]
+10.4 +8.7 89 +9 +9 тепло 1021.6 1010.6
06 21.02 З 2 35 км 10/10 200 м
[Sc]
+10.4 +8.5 88 +9 +9 тепло 1021.6 1010.6 +10.4 +11.5
07 21.02 З 3 55 км 10/10 360 м
[Sc]
+10.6 +8.2 85 +9 +9 тепло 1022.0 1011.0
08 21.02 З 2 40 км 10/10 270 м
[Sc]
+10.5 +8.3 86 +9 +9 тепло 1022.3 1011.3
09 21.02 З 5
{10}
25 км в посл. час морось 10/10 330 м
[Sc]
+10.2 +7.4 83 +7 +7 тепло 1022.6 1011.6 0.0
10 21.02 З 3 40 км 10/10 400 м
[Sc]
+10.7 +7.2 79 +9 +9 тепло 1022.6 1011.6
11 21.02 З 2 40 км 10/10 360 м
[Sc]
+10.9 +7.8 81 +10 +10 тепло 1022.7 1011.8
12 21.02 З 2 45 км {морось} 10/10 360 м
[Sc]
+11.5 +8.4 81 +10 +10 тепло 1022.3 1011.4
13 21.02 З 2 55 км 10/10 420 м
[Sc]
+11.9 +8.6 80 +11 +11 тепло 1021.7 1010.8
14 21.02 З 2 50 км 10/10 450 м
[]
+12.1 +8.8 80 +11 +11 тепло 1021.2 1010.3
15 21.02 З 3 55 км 10/10 480 м
[]
+12.5 +8.6 77 +11 +11 тепло 1021.1 1010.2
16 21.02 З 4
{9}
40 км 10/10 400 м
[Sc]
+12.2 +8.7 79 +10 +10 тепло 1020.8 1009.9
17 21.02 ЮЗ 2 45 км {морось} 10/10 400 м
[]
+11.7 +9.1 84 +11 +11 тепло 1021.0 1010.1
18 21.02 ЮЗ 2 30 км слабая морось 10/10 300 м
[Frnb]
+11.1 +9.2 88 +10 +10 тепло 1021.1 1010.2 +10.1 +12.5

 

Местоположение метеостанции Paris Orly Airport (Франция): широта 48.72 долгота 2.38 высота над уровнем моря 90 м.

В архиве по умолчанию представлена погода в Paris Orly Airport за последнюю неделю. Архивные данные за месяц целиком и за предыдущие месяцы, начиная с января 2011 года, Вы можете получить, выбрав интересующий диапазон дат из раскрывающегося списка и нажав кнопку "Ввод!".

Внимание! Время в таблицах - всемирное. Для получения местного времени необходимо прибавить поправку, которая в Paris Orly Airport равна 1 ч.

Смотрите также архив погоды в соседних городах и на ближайших метеорологических станциях:

Погода в Paris (Франция) (12 км)
Погода в Villacoublay (Франция) (14 км)
Погода в Melun (Франция) (25 км)
Погода в Le Bourget (Франция) (28 км)
Погода в Trappes (Франция) (28 км)
Погода в Charles De Gaulle Airport (Франция) (35 км)
Погода в Cormeilles (Франция) (48 км)
Погода в Creil (Франция) (60 км)
Погода в Chartres (Франция) (70 км)
Погода в Beauvais (Франция) (86 км)

Пояснения к столбцам:

Ветер - указаны скорость ветра в м/с - средняя за 10 мин, порывы в срок и между сроками (в фигурных скобках) и направление, откуда дует ветер: С - северный, СВ - северо-восточный, В - восточный, ЮВ - юго-восточный, Ю - южный, ЮЗ - юго-западный, З - западный, СЗ - северо-западный.
Видимость - горизонтальная дальность видимости в метрах или километрах. При видимости от 1 до 10 км при отсутствии осадков обычно наблюдается дымка, при ухудшении видимости до 1 км и менее - туман. В сухую погоду видимость может ухудшаться дымом, пылью или мглою.
Явления - указаны атмосферные явления, наблюдавшиеся в срок или в последний час перед сроком; фигурными скобками обозначены явления, наблюдавшиеся между сроками (за 1-3 часа до срока); квадратными скобками обозначены град или гололедные отложения с указанием их диаметра в мм.
Облачность - указаны через наклонную черту общая и нижняя облачность в баллах и высота нижней границы облаков в метрах; квадратными скобками обозначены формы облаков: Ci - перистые, Cs - перисто-слоистые, Cc - перисто-кучевые, Ac - высококучевые, As - высокослоистые, Sc - слоисто-кучевые, Ns - слоисто-дождевые, Cu - кучевые, Cb - кучево-дождевые. Подробнее классификацию облаков см. в Атласе облаков (PDF).
T - Температура воздуха - температура, измеренная на высоте 2 м над землей.
Td - Температура точки росы - температура, при понижении до которой содержащийся в воздухе водяной пар достигнет насыщения.
f - Относительная влажность воздуха - влажноcть воздуха, измеренная на высоте 2 м над землей.
Te - Эффективная температура - температура, которую ощущает одетый по сезону человек в тени. Характеристика душности погоды. При расчете учитывается влияние влажности воздуха и скорости ветра на теплоощущения человека.
Tes - Эффективная температура на солнце - температура, которую ощущает человек, с поправкой на солнечный нагрев. Характеристика знойности погоды. Зависит от высоты солнца над горизонтом, облачности и скорости ветра. Ночью, в пасмурную погоду, а также при ветре 12 м/с и более поправка равна нулю.
P - Атмосферное давление - приведенное к уровню моря атмосферное давление.
Po - Атмосферное давление - измеренное на уровне метеостанции атмосферное давление.
Tmin - Минимальная температура - минимум температуры воздуха на высоте 2 м над землей.
Tmax - Максимальная температура - максимум температуры воздуха на высоте 2 м над землей.
R - Количество осадков - Количество выпавших осадков, мм. При наведении курсора мыши на число - период времени, за который выпало указанное количество осадков.
S - Снежный покров - Высота снежного покрова, см. При наведении курсора мыши на число - состояние снежного покрова и степень покрытия местности в баллах.